Regional Weather Roundup
Issued by NWS

Home | Current Version | Previous Version | Text Only | Print | Product List | Glossary On
Versions: 1 2 3 4 5 6 7 8 9 10 11 12 13 14 15 16 17 18 19 20 21 22 23 24 25 26 27 28 29 30 31 32 33 34 35 36 37 38 39 40 41 42 43 44 45 46 47 48 49 50
000
ASUS43 KLSX 220407
RWRMO

WEATHER SUMMARY FOR MISSOURI
NATIONAL WEATHER SERVICE SPRINGFIELD MO
1100 PM CDT TUE OCT 21 2014

NOTE: "FAIR" INDICATES FEW OR NO CLOUDS BELOW 12,000 FEET WITH NO
       SIGNIFICANT WEATHER AND/OR OBSTRUCTIONS TO VISIBILITY.
       CURRENT SKY AND/OR WEATHER CONDITIONS ARE NOT AVAILABLE FOR
       CHILLICOTHE AND FARMINGTON.

MOZ001>031-035>038-043-044-053-054-220500-
...NORTHERN AND WESTERN MISSOURI...

CITY           SKY/WX    TMP DP  RH WIND       PRES   REMARKS
KANSAS CTY INT CLEAR     59  45  59 E13       30.11S
KANSAS C DTWN  CLEAR     57  45  64 E7        30.11R
LEE`S SUMMIT   CLEAR     55  42  61 E8        30.13R
ST JOSEPH      CLEAR     59  45  59 SE12      30.11R
CHILLICOTHE      N/A     54  44  69 E3        30.17R
KIRKSVILLE     CLEAR     49  41  74 E8        30.19S

$$
MOZ066>068-077>081-088>096-101>105-220500-
...SOUTHWEST MISSOURI...

CITY           SKY/WX    TMP DP  RH WIND       PRES   REMARKS
SPRINGFIELD    CLEAR     55  45  68 SE3       30.13R
JOPLIN         CLEAR     58  48  69 SE7       30.12R

$$
MOZ032>034-039>042-045>050-055>058-069>072-220500-
...CENTRAL MISSOURI...

CITY           SKY/WX    TMP DP  RH WIND       PRES   REMARKS
COLUMBIA       CLEAR     52  43  71 E9        30.17S
JEFFERSON CITY CLEAR     51  44  77 SE6       30.17R
ROLLA          CLEAR     51  43  74 E7        30.15S
SEDALIA        CLEAR     54  45  71 E7        30.16R
OSAGE BEACH    CLEAR     55  43  62 E5        30.16R

$$
MOZ051-052-059>065-220500-
...EAST CENTRAL MISSOURI...

CITY           SKY/WX    TMP DP  RH WIND       PRES   REMARKS
ST LOUIS INTL  CLEAR     52  40  63 E9        30.20S
SPIRIT OF STL  CLEAR     44  42  93 CALM      30.19R
ST CHARLES     CLEAR     50  40  68 E9        30.20R

$$
MOZ072>076-082>087-097>100-106>115-220500-
...SOUTH CENTRAL AND SOUTHEAST MISSOURI...

CITY           SKY/WX    TMP DP  RH WIND       PRES   REMARKS
CAPE GIRARDEAU CLEAR     49  44  83 NE6       30.18R
FARMINGTON     CLEAR     50  43  76 N6        30.20S
POPLAR BLUFF   CLEAR     55  44  66 NE5       30.15R
WEST PLAINS    CLEAR     54  44  69 E3        30.17R

$$



USA.gov is the U.S. government's official web portal to all federal, state and local government web resources and services.